Time,TemperatureF,DewpointF,PressureIn,WindDirection,WindDirectionDegrees,WindSpeedMPH,WindSpeedGustMPH,Humidity,HourlyPrecipIn,Conditions,Clouds,dailyrainin,SoftwareType,DateUTC
2013-03-28 00:00:00,43.0,27.0,30.22,NE,49,0.0,0.0,53,0.00,CLR,,0.00,WeatherDisplay:10.37,2013-03-28 04:00:00,
2013-03-28 00:01:00,43.0,27.0,30.22,NE,49,0.0,0.0,53,0.00,CLR,,0.00,WeatherDisplay:10.37,2013-03-28 04:01:00,
2013-03-28 00:06:00,42.8,26.8,30.22,NE,49,0.0,0.0,53,0.00,CLR,,0.00,WeatherDisplay:10.37,2013-03-28 04:06:00,
2013-03-28 00:16:00,42.6,27.1,30.22,NE,49,0.0,0.0,54,0.00,CLR,,0.00,WeatherDisplay:10.37,2013-03-28 04:16:00,
2013-03-28 00:21:00,42.4,27.0,30.22,NE,49,0.0,0.0,54,0.00,CLR,,0.00,WeatherDisplay:10.37,2013-03-28 04:21:00,
2013-03-28 00:31:00,42.4,27.4,30.22,NE,49,0.0,0.0,55,0.00,CLR,,0.00,WeatherDisplay:10.37,2013-03-28 04:31:00,
2013-03-28 00:36:00,42.3,27.2,30.22,NE,49,0.0,0.0,55,0.00,CLR,,0.00,WeatherDisplay:10.37,2013-03-28 04:36:00,
2013-03-28 00:46:00,42.3,27.2,30.22,ENE,57,0.0,0.0,55,0.00,CLR,,0.00,WeatherDisplay:10.37,2013-03-28 04:46:00,
2013-03-28 00:51:00,42.3,27.7,30.22,ENE,57,0.0,0.0,56,0.00,CLR,,0.00,WeatherDisplay:10.37,2013-03-28 04:51:00,
2013-03-28 01:00:00,42.3,27.7,30.22,ENE,57,0.0,0.0,56,0.00,CLR,,0.00,WeatherDisplay:10.37,2013-03-28 05:00:00,
2013-03-28 01:01:00,42.3,28.1,30.22,ENE,57,0.0,0.0,57,0.00,CLR,,0.00,WeatherDisplay:10.37,2013-03-28 05:01:00,
2013-03-28 01:05:00,42.3,28.1,30.22,ENE,57,0.0,0.0,57,0.00,CLR,,0.00,WeatherDisplay:10.37,2013-03-28 05:05:00,
2013-03-28 01:10:00,42.3,28.1,30.22,ENE,57,0.0,0.0,57,0.00,CLR,,0.00,WeatherDisplay:10.37,2013-03-28 05:10:00,
2013-03-28 01:16:00,42.3,28.1,30.22,ENE,57,0.0,0.0,57,0.00,CLR,,0.00,WeatherDisplay:10.37,2013-03-28 05:16:00,
2013-03-28 01:22:00,42.1,28.4,30.22,ENE,63,0.0,0.0,58,0.00,CLR,,0.00,WeatherDisplay:10.37,2013-03-28 05:22:00,
2013-03-28 01:31:00,42.1,28.4,30.22,ENE,63,0.0,0.0,58,0.00,CLR,,0.00,WeatherDisplay:10.37,2013-03-28 05:31:00,
2013-03-28 01:36:00,41.9,28.2,30.22,ENE,63,0.0,0.0,58,0.00,CLR,,0.00,WeatherDisplay:10.37,2013-03-28 05:36:00,
2013-03-28 01:46:00,41.7,28.4,30.19,ENE,63,0.0,0.0,59,0.00,CLR,,0.00,WeatherDisplay:10.37,2013-03-28 05:46:00,
2013-03-28 01:51:00,41.7,28.4,30.19,ENE,63,0.0,0.0,59,0.00,CLR,,0.00,WeatherDisplay:10.37,2013-03-28 05:51:00,
2013-03-28 02:00:00,41.7,28.8,30.19,ENE,63,0.0,0.0,60,0.00,CLR,,0.00,WeatherDisplay:10.37,2013-03-28 06:00:00,
2013-03-28 02:01:00,41.5,29.1,30.19,ENE,63,0.0,0.0,61,0.00,CLR,,0.00,WeatherDisplay:10.37,2013-03-28 06:01:00,
2013-03-28 02:05:00,41.7,28.8,30.19,ENE,63,0.0,0.0,60,0.00,CLR,,0.00,WeatherDisplay:10.37,2013-03-28 06:05:00,
2013-03-28 02:10:00,41.5,29.1,30.19,ENE,63,0.0,0.0,61,0.00,CLR,,0.00,WeatherDisplay:10.37,2013-03-28 06:10:00,
2013-03-28 02:16:00,41.5,29.1,30.19,ENE,63,0.0,0.0,61,0.00,CLR,,0.00,WeatherDisplay:10.37,2013-03-28 06:16:00,
2013-03-28 02:21:00,41.4,28.9,30.19,ENE,63,0.0,0.0,61,0.00,CLR,,0.00,WeatherDisplay:10.37,2013-03-28 06:21:00,
2013-03-28 02:31:00,41.2,29.1,30.19,ENE,63,0.0,0.0,62,0.00,CLR,,0.00,WeatherDisplay:10.37,2013-03-28 06:31:00,
2013-03-28 02:36:00,41.2,29.1,30.19,ENE,63,0.0,0.0,62,0.00,CLR,,0.00,WeatherDisplay:10.37,2013-03-28 06:36:00,
2013-03-28 02:46:00,41.0,29.4,30.19,ENE,63,0.0,0.0,63,0.00,CLR,,0.00,WeatherDisplay:10.37,2013-03-28 06:46:00,
2013-03-28 02:51:00,41.2,29.5,30.19,ENE,63,0.0,0.0,63,0.00,CLR,,0.00,WeatherDisplay:10.37,2013-03-28 06:51:00,
2013-03-28 03:00:00,41.4,30.1,30.19,ENE,63,0.0,0.0,64,0.00,CLR,,0.00,WeatherDisplay:10.37,2013-03-28 07:00:00,
2013-03-28 03:01:00,41.5,30.6,30.19,ENE,63,0.0,0.0,65,0.00,CLR,,0.00,WeatherDisplay:10.37,2013-03-28 07:01:00,
2013-03-28 03:05:00,41.4,30.1,30.19,ENE,63,0.0,0.0,64,0.00,CLR,,0.00,WeatherDisplay:10.37,2013-03-28 07:05:00,
2013-03-28 03:10:00,41.5,30.6,30.19,ENE,63,0.0,0.0,65,0.00,CLR,,0.00,WeatherDisplay:10.37,2013-03-28 07:10:00,
2013-03-28 03:16:00,42.1,31.5,30.19,ENE,63,0.0,0.0,66,0.00,CLR,,0.00,WeatherDisplay:10.37,2013-03-28 07:16:00,
2013-03-28 03:21:00,42.3,31.7,30.19,ENE,63,0.0,0.0,66,0.00,CLR,,0.00,WeatherDisplay:10.37,2013-03-28 07:21:00,
2013-03-28 03:31:00,42.4,31.9,30.19,ENE,63,0.0,0.0,66,0.00,CLR,,0.00,WeatherDisplay:10.37,2013-03-28 07:31:00,
2013-03-28 03:36:00,42.4,32.3,30.19,ENE,63,0.0,0.0,67,0.00,CLR,,0.00,WeatherDisplay:10.37,2013-03-28 07:36:00,
2013-03-28 03:46:00,42.6,32.4,30.19,ENE,63,0.0,0.0,67,0.00,CLR,,0.00,WeatherDisplay:10.37,2013-03-28 07:46:00,
2013-03-28 03:51:00,42.6,32.4,30.19,ENE,63,0.0,0.0,67,0.00,CLR,,0.00,WeatherDisplay:10.37,2013-03-28 07:51:00,
2013-03-28 04:00:00,42.6,32.8,30.19,ENE,63,0.0,0.0,68,0.00,CLR,,0.00,WeatherDisplay:10.37,2013-03-28 08:00:00,
2013-03-28 04:01:00,42.4,32.6,30.19,ENE,63,0.0,0.0,68,0.00,CLR,,0.00,WeatherDisplay:10.37,2013-03-28 08:01:00,
2013-03-28 04:05:00,42.6,32.8,30.19,ENE,63,0.0,0.0,68,0.00,CLR,,0.00,WeatherDisplay:10.37,2013-03-28 08:05:00,
2013-03-28 04:10:00,42.4,32.6,30.19,ENE,63,0.0,0.0,68,0.00,CLR,,0.00,WeatherDisplay:10.37,2013-03-28 08:10:00,
2013-03-28 04:16:00,42.3,32.4,30.16,ENE,63,0.0,0.0,68,0.00,CLR,,0.00,WeatherDisplay:10.37,2013-03-28 08:16:00,
2013-03-28 04:21:00,42.3,32.8,30.16,ENE,63,0.0,0.0,69,0.00,CLR,,0.00,WeatherDisplay:10.37,2013-03-28 08:21:00,
2013-03-28 04:31:00,42.4,33.0,30.19,ENE,63,0.0,0.0,69,0.00,CLR,,0.00,WeatherDisplay:10.37,2013-03-28 08:31:00,
2013-03-28 04:36:00,42.6,33.2,30.19,ENE,63,0.0,0.0,69,0.00,CLR,,0.00,WeatherDisplay:10.37,2013-03-28 08:36:00,
2013-03-28 04:46:00,43.7,34.9,30.19,North,357,3.4,0.0,71,0.00,CLR,,0.00,WeatherDisplay:10.37,2013-03-28 08:46:00,
2013-03-28 04:51:00,44.4,35.6,30.19,NNE,15,2.3,0.0,71,0.00,CLR,,0.00,WeatherDisplay:10.37,2013-03-28 08:51:00,
2013-03-28 05:00:00,45.5,37.0,30.19,NNW,341,0.0,0.0,72,0.00,CLR,,0.00,WeatherDisplay:10.37,2013-03-28 09:00:00,
2013-03-28 05:01:00,46.0,37.5,30.19,North,357,0.0,0.0,72,0.00,CLR,,0.00,WeatherDisplay:10.37,2013-03-28 09:01:00,
2013-03-28 05:05:00,45.9,37.3,30.19,North,2,0.0,0.0,72,0.00,CLR,,0.00,WeatherDisplay:10.37,2013-03-28 09:05:00,
2013-03-28 05:10:00,46.0,37.5,30.19,North,357,0.0,0.0,72,0.00,CLR,,0.00,WeatherDisplay:10.37,2013-03-28 09:10:00,
2013-03-28 05:16:00,46.0,37.5,30.19,North,357,0.0,0.0,72,0.00,CLR,,0.00,WeatherDisplay:10.37,2013-03-28 09:16:00,
2013-03-28 05:21:00,45.7,37.2,30.19,North,3,0.0,0.0,72,0.00,CLR,,0.00,WeatherDisplay:10.37,2013-03-28 09:21:00,
2013-03-28 05:31:00,45.3,36.8,30.19,North,3,0.0,0.0,72,0.00,CLR,,0.00,WeatherDisplay:10.37,2013-03-28 09:31:00,
2013-03-28 05:36:00,44.8,36.3,30.19,North,3,0.0,0.0,72,0.00,CLR,,0.00,WeatherDisplay:10.37,2013-03-28 09:36:00,
2013-03-28 05:46:00,44.1,35.6,30.19,North,3,0.0,0.0,72,0.00,CLR,,0.00,WeatherDisplay:10.37,2013-03-28 09:46:00,
2013-03-28 05:51:00,43.7,35.3,30.19,North,3,0.0,0.0,72,0.00,CLR,,0.00,WeatherDisplay:10.37,2013-03-28 09:51:00,
2013-03-28 06:00:00,43.3,35.3,30.16,North,3,0.0,0.0,73,0.00,CLR,,0.00,WeatherDisplay:10.37,2013-03-28 10:00:00,
2013-03-28 06:01:00,42.8,34.7,30.19,North,3,0.0,0.0,73,0.00,CLR,,0.00,WeatherDisplay:10.37,2013-03-28 10:01:00,
2013-03-28 06:05:00,43.0,34.9,30.16,North,3,0.0,0.0,73,0.00,CLR,,0.00,WeatherDisplay:10.37,2013-03-28 10:05:00,
2013-03-28 06:10:00,43.0,34.9,30.16,North,3,0.0,0.0,73,0.00,CLR,,0.00,WeatherDisplay:10.37,2013-03-28 10:10:00,
2013-03-28 06:16:00,42.6,34.6,30.19,North,3,0.0,0.0,73,0.00,CLR,,0.00,WeatherDisplay:10.37,2013-03-28 10:16:00,
2013-03-28 06:21:00,42.6,34.6,30.19,North,3,0.0,0.0,73,0.00,CLR,,0.00,WeatherDisplay:10.37,2013-03-28 10:21:00,
2013-03-28 06:31:00,42.3,34.2,30.19,North,3,0.0,0.0,73,0.00,CLR,,0.00,WeatherDisplay:10.37,2013-03-28 10:31:00,
2013-03-28 06:36:00,42.1,34.0,30.19,North,3,0.0,0.0,73,0.00,CLR,,0.00,WeatherDisplay:10.37,2013-03-28 10:36:00,
2013-03-28 06:46:00,41.7,33.7,30.19,North,3,0.0,0.0,73,0.00,CLR,,0.00,WeatherDisplay:10.37,2013-03-28 10:46:00,
2013-03-28 06:51:00,41.7,34.0,30.19,North,3,0.0,0.0,74,0.00,CLR,,0.00,WeatherDisplay:10.37,2013-03-28 10:51:00,
2013-03-28 07:00:00,41.7,34.0,30.19,North,7,0.0,0.0,74,0.00,CLR,,0.00,WeatherDisplay:10.37,2013-03-28 11:00:00,
2013-03-28 07:01:00,41.5,33.9,30.19,North,7,0.0,0.0,74,0.00,CLR,,0.00,WeatherDisplay:10.37,2013-03-28 11:01:00,
2013-03-28 07:05:00,41.7,34.0,30.19,North,7,0.0,0.0,74,0.00,CLR,,0.00,WeatherDisplay:10.37,2013-03-28 11:05:00,
2013-03-28 07:10:00,41.7,34.0,30.19,North,7,0.0,0.0,74,0.00,CLR,,0.00,WeatherDisplay:10.37,2013-03-28 11:10:00,
2013-03-28 07:16:00,41.5,33.9,30.19,North,7,0.0,0.0,74,0.00,CLR,,0.00,WeatherDisplay:10.37,2013-03-28 11:16:00,
2013-03-28 07:21:00,41.5,33.9,30.19,North,7,0.0,0.0,74,0.00,CLR,,0.00,WeatherDisplay:10.37,2013-03-28 11:21:00,
2013-03-28 07:31:00,41.4,33.7,30.22,North,7,0.0,0.0,74,0.00,CLR,,0.00,WeatherDisplay:10.37,2013-03-28 11:31:00,
2013-03-28 07:36:00,41.4,33.7,30.22,North,7,0.0,0.0,74,0.00,CLR,,0.00,WeatherDisplay:10.37,2013-03-28 11:36:00,
2013-03-28 07:46:00,41.0,33.3,30.22,North,7,0.0,0.0,74,0.00,CLR,,0.00,WeatherDisplay:10.37,2013-03-28 11:46:00,
2013-03-28 07:51:00,41.2,33.9,30.22,NNW,343,0.0,0.0,75,0.00,CLR,,0.00,WeatherDisplay:10.37,2013-03-28 11:51:00,
2013-03-28 08:00:00,42.3,35.2,30.22,North,6,0.0,0.0,76,0.00,CLR,,0.00,WeatherDisplay:10.37,2013-03-28 12:00:00,
2013-03-28 08:01:00,43.7,36.6,30.22,NNE,21,0.0,0.0,76,0.00,CLR,,0.00,WeatherDisplay:10.37,2013-03-28 12:01:00,
2013-03-28 08:05:00,43.0,35.9,30.22,WSW,254,0.0,0.0,76,0.00,CLR,,0.00,WeatherDisplay:10.37,2013-03-28 12:05:00,
2013-03-28 08:10:00,43.7,36.6,30.22,NNE,21,2.7,0.0,76,0.00,CLR,,0.00,WeatherDisplay:10.37,2013-03-28 12:10:00,
2013-03-28 08:16:00,44.4,37.7,30.22,North,0,2.3,0.0,77,0.00,CLR,,0.00,WeatherDisplay:10.37,2013-03-28 12:16:00,
2013-03-28 08:21:00,45.3,38.5,30.22,NNE,12,3.6,3.6,77,0.00,CLR,,0.00,WeatherDisplay:10.37,2013-03-28 12:21:00,
2013-03-28 08:31:00,47.1,40.3,30.22,North,357,3.4,0.0,77,0.00,CLR,,0.00,WeatherDisplay:10.37,2013-03-28 12:31:00,
2013-03-28 08:36:00,47.7,40.5,30.22,North,4,3.4,0.0,76,0.00,CLR,,0.00,WeatherDisplay:10.37,2013-03-28 12:36:00,
2013-03-28 08:46:00,48.9,39.6,30.22,NNE,22,3.4,3.4,70,0.00,CLR,,0.00,WeatherDisplay:10.37,2013-03-28 12:46:00,
2013-03-28 08:51:00,49.8,38.9,30.22,NNE,26,2.7,0.0,66,0.00,CLR,,0.00,WeatherDisplay:10.37,2013-03-28 12:51:00,
2013-03-28 09:00:00,50.9,32.9,30.25,NNE,21,5.8,5.8,50,0.00,CLR,,0.00,WeatherDisplay:10.37,2013-03-28 13:00:00,
2013-03-28 09:01:00,52.2,32.0,30.25,NNE,20,4.0,0.0,46,0.00,CLR,,0.00,WeatherDisplay:10.37,2013-03-28 13:01:00,
2013-03-28 09:05:00,51.6,32.6,30.25,NNE,16,3.6,3.6,48,0.00,CLR,,0.00,WeatherDisplay:10.37,2013-03-28 13:05:00,
2013-03-28 09:10:00,52.0,31.8,30.25,NE,34,3.1,0.0,46,0.00,CLR,,0.00,WeatherDisplay:10.37,2013-03-28 13:10:00,
2013-03-28 09:16:00,52.7,32.5,30.25,North,357,3.6,3.6,46,0.00,CLR,,0.00,WeatherDisplay:10.37,2013-03-28 13:16:00,
2013-03-28 09:21:00,53.2,31.3,30.25,East,85,5.8,5.8,43,0.00,CLR,,0.00,WeatherDisplay:10.37,2013-03-28 13:21:00,
2013-03-28 09:31:00,54.1,29.7,30.25,North,357,5.8,0.0,39,0.00,CLR,,0.00,WeatherDisplay:10.37,2013-03-28 13:31:00,
2013-03-28 09:36:00,54.5,29.4,30.25,NNE,33,5.8,5.8,38,0.00,CLR,,0.00,WeatherDisplay:10.37,2013-03-28 13:36:00,
2013-03-28 09:46:00,55.4,28.2,30.25,North,0,6.9,6.9,35,0.00,CLR,,0.00,WeatherDisplay:10.37,2013-03-28 13:46:00,
2013-03-28 09:51:00,55.9,27.2,30.25,North,1,5.8,5.8,33,0.00,CLR,,0.00,WeatherDisplay:10.37,2013-03-28 13:51:00,
2013-03-28 10:00:00,56.5,26.2,30.25,ESE,102,5.8,5.8,31,0.00,CLR,,0.00,WeatherDisplay:10.37,2013-03-28 14:00:00,
2013-03-28 10:01:00,57.2,26.8,30.25,NNW,340,5.8,5.8,31,0.00,CLR,,0.00,WeatherDisplay:10.37,2013-03-28 14:01:00,
2013-03-28 10:05:00,56.7,26.3,30.25,NNE,22,3.4,3.4,31,0.00,CLR,,0.00,WeatherDisplay:10.37,2013-03-28 14:05:00,
2013-03-28 10:10:00,57.2,26.8,30.25,East,99,5.8,5.8,31,0.00,CLR,,0.00,WeatherDisplay:10.37,2013-03-28 14:10:00,
2013-03-28 10:16:00,57.7,26.5,30.25,East,95,3.4,3.4,30,0.00,CLR,,0.00,WeatherDisplay:10.37,2013-03-28 14:16:00,
2013-03-28 10:21:00,58.1,26.8,30.25,SE,141,3.4,3.4,30,0.00,CLR,,0.00,WeatherDisplay:10.37,2013-03-28 14:21:00,
2013-03-28 10:31:00,58.8,25.7,30.25,NNE,29,3.4,3.4,28,0.00,CLR,,0.00,WeatherDisplay:10.37,2013-03-28 14:31:00,
2013-03-28 10:37:00,59.0,25.0,30.25,East,82,5.8,5.8,27,0.00,CLR,,0.00,WeatherDisplay:10.37,2013-03-28 14:37:00,
2013-03-28 10:46:00,59.7,25.6,30.25,NW,319,5.8,5.8,27,0.00,CLR,,0.00,WeatherDisplay:10.37,2013-03-28 14:46:00,
2013-03-28 10:51:00,60.1,24.1,30.25,East,95,5.8,5.8,25,0.00,CLR,,0.00,WeatherDisplay:10.37,2013-03-28 14:51:00,
2013-03-28 11:00:00,60.4,24.4,30.25,NE,43,5.8,5.8,25,0.00,CLR,,0.00,WeatherDisplay:10.37,2013-03-28 15:00:00,
2013-03-28 11:01:00,61.0,23.9,30.25,NNE,27,8.1,8.1,24,0.00,CLR,,0.00,WeatherDisplay:10.37,2013-03-28 15:01:00,
2013-03-28 11:05:00,60.6,23.6,30.25,East,84,8.1,8.1,24,0.00,CLR,,0.00,WeatherDisplay:10.37,2013-03-28 15:05:00,
2013-03-28 11:10:00,60.8,23.7,30.25,North,353,8.3,8.3,24,0.00,CLR,,0.00,WeatherDisplay:10.37,2013-03-28 15:10:00,
2013-03-28 11:16:00,61.2,24.0,30.25,SE,138,3.4,3.4,24,0.00,CLR,,0.00,WeatherDisplay:10.37,2013-03-28 15:16:00,
2013-03-28 11:21:00,61.5,24.3,30.25,East,101,5.8,5.8,24,0.00,CLR,,0.00,WeatherDisplay:10.37,2013-03-28 15:21:00,
2013-03-28 11:31:00,61.7,24.5,30.25,North,357,8.1,8.1,24,0.00,CLR,,0.00,WeatherDisplay:10.37,2013-03-28 15:31:00,
2013-03-28 11:36:00,62.1,24.8,30.25,SE,125,8.1,8.1,24,0.00,CLR,,0.00,WeatherDisplay:10.37,2013-03-28 15:36:00,
2013-03-28 11:46:00,62.8,25.4,30.25,North,357,6.9,6.9,24,0.00,CLR,,0.00,WeatherDisplay:10.37,2013-03-28 15:46:00,
2013-03-28 11:51:00,63.1,24.7,30.25,SE,124,5.8,5.8,23,0.00,CLR,,0.00,WeatherDisplay:10.37,2013-03-28 15:51:00,
2013-03-28 12:00:00,63.5,22.8,30.25,North,0,8.1,8.1,21,0.00,CLR,,0.00,WeatherDisplay:10.37,2013-03-28 16:00:00,
2013-03-28 12:01:00,64.6,22.6,30.25,SE,131,5.8,5.8,20,0.00,CLR,,0.00,WeatherDisplay:10.37,2013-03-28 16:01:00,
2013-03-28 12:05:00,63.9,25.3,30.25,East,95,8.1,8.1,23,0.00,CLR,,0.00,WeatherDisplay:10.37,2013-03-28 16:05:00,
2013-03-28 12:10:00,64.6,22.6,30.25,North,9,5.8,5.8,20,0.00,CLR,,0.00,WeatherDisplay:10.37,2013-03-28 16:10:00,
2013-03-28 12:16:00,64.6,22.6,30.25,NNW,331,5.8,5.8,20,0.00,CLR,,0.00,WeatherDisplay:10.37,2013-03-28 16:16:00,
2013-03-28 12:21:00,64.8,20.2,30.25,NNW,330,9.2,9.2,18,0.00,CLR,,0.00,WeatherDisplay:10.37,2013-03-28 16:21:00,
2013-03-28 12:31:00,65.1,23.0,30.25,NW,314,5.8,5.8,20,0.00,CLR,,0.00,WeatherDisplay:10.37,2013-03-28 16:31:00,
2013-03-28 12:36:00,65.5,23.3,30.25,NNW,345,5.8,5.8,20,0.00,CLR,,0.00,WeatherDisplay:10.37,2013-03-28 16:36:00,
2013-03-28 12:46:00,65.8,21.1,30.25,NNW,341,5.8,6.3,18,0.00,CLR,,0.00,WeatherDisplay:10.37,2013-03-28 16:46:00,
2013-03-28 12:51:00,66.0,21.2,30.25,NNW,338,3.4,3.4,18,0.00,CLR,,0.00,WeatherDisplay:10.37,2013-03-28 16:51:00,
2013-03-28 13:00:00,66.4,24.1,30.25,ESE,103,6.3,6.3,20,0.00,CLR,,0.00,WeatherDisplay:10.37,2013-03-28 17:00:00,
2013-03-28 13:01:00,67.3,20.9,30.25,NW,311,8.1,0.0,17,0.00,CLR,,0.00,WeatherDisplay:10.37,2013-03-28 17:01:00,
2013-03-28 13:05:00,67.1,24.6,30.25,NNE,23,8.1,8.1,20,0.00,CLR,,0.00,WeatherDisplay:10.37,2013-03-28 17:05:00,
2013-03-28 13:10:00,67.3,20.9,30.25,NNW,331,8.1,8.1,17,0.00,CLR,,0.00,WeatherDisplay:10.37,2013-03-28 17:10:00,
2013-03-28 13:16:00,67.5,21.1,30.25,NNW,334,5.8,5.8,17,0.00,CLR,,0.00,WeatherDisplay:10.37,2013-03-28 17:16:00,
2013-03-28 13:21:00,67.6,18.3,30.25,NE,41,9.2,9.2,15,0.00,CLR,,0.00,WeatherDisplay:10.37,2013-03-28 17:21:00,
2013-03-28 13:31:00,68.5,25.8,30.22,ESE,105,5.8,5.8,20,0.00,CLR,,0.00,WeatherDisplay:10.37,2013-03-28 17:31:00,
2013-03-28 13:36:00,69.4,22.7,30.22,ESE,116,5.8,5.8,17,0.00,CLR,,0.00,WeatherDisplay:10.37,2013-03-28 17:36:00,
2013-03-28 13:46:00,69.3,19.6,30.22,NNW,348,6.7,6.7,15,0.00,CLR,,0.00,WeatherDisplay:10.37,2013-03-28 17:46:00,
2013-03-28 13:51:00,69.1,22.4,30.22,ESE,112,3.4,3.4,17,0.00,CLR,,0.00,WeatherDisplay:10.37,2013-03-28 17:51:00,
2013-03-28 14:00:00,69.8,18.4,30.22,SSW,203,3.4,3.4,14,0.00,CLR,,0.00,WeatherDisplay:10.37,2013-03-28 18:00:00,
2013-03-28 14:01:00,69.3,19.6,30.22,NW,315,8.3,8.3,15,0.00,CLR,,0.00,WeatherDisplay:10.37,2013-03-28 18:01:00,
2013-03-28 14:05:00,69.3,19.6,30.22,NNW,345,3.4,0.0,15,0.00,CLR,,0.00,WeatherDisplay:10.37,2013-03-28 18:05:00,
2013-03-28 14:10:00,69.3,19.6,30.22,North,7,8.1,8.1,15,0.00,CLR,,0.00,WeatherDisplay:10.37,2013-03-28 18:10:00,
2013-03-28 14:16:00,69.6,19.9,30.22,NW,309,3.6,0.0,15,0.00,CLR,,0.00,WeatherDisplay:10.37,2013-03-28 18:16:00,
2013-03-28 14:21:00,70.2,18.7,30.22,NNW,331,5.8,5.8,14,0.00,CLR,,0.00,WeatherDisplay:10.37,2013-03-28 18:21:00,
2013-03-28 14:31:00,70.0,23.1,30.22,North,1,10.3,10.3,17,0.00,CLR,,0.00,WeatherDisplay:10.37,2013-03-28 18:31:00,
2013-03-28 14:36:00,70.2,23.3,30.22,North,357,11.5,11.5,17,0.00,CLR,,0.00,WeatherDisplay:10.37,2013-03-28 18:36:00,
2013-03-28 14:46:00,70.3,23.4,30.22,NW,320,10.1,10.1,17,0.00,CLR,,0.00,WeatherDisplay:10.37,2013-03-28 18:46:00,
2013-03-28 14:51:00,70.3,26.1,30.22,North,353,10.3,10.3,19,0.00,CLR,,0.00,WeatherDisplay:10.37,2013-03-28 18:51:00,
2013-03-28 15:00:00,68.7,26.0,30.19,North,353,5.8,5.8,20,0.00,CLR,,0.00,WeatherDisplay:10.37,2013-03-28 19:00:00,
2013-03-28 15:01:00,70.3,23.4,30.19,NNW,329,11.5,11.5,17,0.00,CLR,,0.00,WeatherDisplay:10.37,2013-03-28 19:01:00,
2013-03-28 15:05:00,69.4,26.6,30.19,North,357,8.1,8.1,20,0.00,CLR,,0.00,WeatherDisplay:10.37,2013-03-28 19:05:00,
2013-03-28 15:10:00,70.3,23.4,30.19,North,353,11.5,11.5,17,0.00,CLR,,0.00,WeatherDisplay:10.37,2013-03-28 19:10:00,
2013-03-28 15:16:00,69.8,23.0,30.19,West,273,8.1,8.1,17,0.00,CLR,,0.00,WeatherDisplay:10.37,2013-03-28 19:16:00,
2013-03-28 15:21:00,70.2,23.3,30.19,North,3,7.6,7.6,17,0.00,CLR,,0.00,WeatherDisplay:10.37,2013-03-28 19:21:00,
2013-03-28 15:31:00,70.5,23.6,30.19,NNW,329,10.3,10.3,17,0.00,CLR,,0.00,WeatherDisplay:10.37,2013-03-28 19:31:00,
2013-03-28 15:36:00,70.5,23.6,30.19,NW,315,9.2,9.2,17,0.00,CLR,,0.00,WeatherDisplay:10.37,2013-03-28 19:36:00,
2013-03-28 15:46:00,70.0,23.1,30.19,SW,226,3.6,3.6,17,0.00,CLR,,0.00,WeatherDisplay:10.37,2013-03-28 19:46:00,
2013-03-28 15:51:00,70.3,23.4,30.19,North,5,8.1,8.1,17,0.00,CLR,,0.00,WeatherDisplay:10.37,2013-03-28 19:51:00,
2013-03-28 16:00:00,69.4,22.7,30.19,NW,317,8.1,8.1,17,0.00,CLR,,0.00,WeatherDisplay:10.37,2013-03-28 20:00:00,
2013-03-28 16:01:00,69.8,23.0,30.19,NNW,344,8.1,8.1,17,0.00,CLR,,0.00,WeatherDisplay:10.37,2013-03-28 20:01:00,
2013-03-28 16:05:00,69.6,22.8,30.19,WNW,291,6.9,6.9,17,0.00,CLR,,0.00,WeatherDisplay:10.37,2013-03-28 20:05:00,
2013-03-28 16:10:00,69.8,23.0,30.19,NNW,332,9.2,9.2,17,0.00,CLR,,0.00,WeatherDisplay:10.37,2013-03-28 20:10:00,
2013-03-28 16:16:00,70.0,18.5,30.19,NNW,331,6.3,6.3,14,0.00,CLR,,0.00,WeatherDisplay:10.37,2013-03-28 20:16:00,
2013-03-28 16:21:00,70.0,18.5,30.19,North,353,5.8,5.8,14,0.00,CLR,,0.00,WeatherDisplay:10.37,2013-03-28 20:21:00,
2013-03-28 16:31:00,69.3,19.6,30.19,NNW,330,7.6,7.6,15,0.00,CLR,,0.00,WeatherDisplay:10.37,2013-03-28 20:31:00,
2013-03-28 16:36:00,70.3,18.8,30.19,North,5,5.8,5.8,14,0.00,CLR,,0.00,WeatherDisplay:10.37,2013-03-28 20:36:00,
2013-03-28 16:46:00,70.3,18.8,30.19,SW,233,5.8,5.8,14,0.00,CLR,,0.00,WeatherDisplay:10.37,2013-03-28 20:46:00,
2013-03-28 16:51:00,70.0,18.5,30.19,NNW,346,5.8,5.8,14,0.00,CLR,,0.00,WeatherDisplay:10.37,2013-03-28 20:51:00,
2013-03-28 17:00:00,71.1,19.4,30.19,North,353,8.1,8.1,14,0.00,CLR,,0.00,WeatherDisplay:10.37,2013-03-28 21:00:00,
2013-03-28 17:01:00,70.0,18.5,30.19,NNE,13,5.8,5.8,14,0.00,CLR,,0.00,WeatherDisplay:10.37,2013-03-28 21:01:00,
2013-03-28 17:05:00,70.9,19.3,30.19,NNW,329,6.3,6.3,14,0.00,CLR,,0.00,WeatherDisplay:10.37,2013-03-28 21:05:00,
2013-03-28 17:10:00,70.0,18.5,30.19,WNW,289,10.5,10.5,14,0.00,CLR,,0.00,WeatherDisplay:10.37,2013-03-28 21:10:00,
2013-03-28 17:16:00,69.8,18.4,30.19,North,353,4.0,4.0,14,0.00,CLR,,0.00,WeatherDisplay:10.37,2013-03-28 21:16:00,
2013-03-28 17:21:00,70.2,18.7,30.19,North,353,10.1,10.1,14,0.00,CLR,,0.00,WeatherDisplay:10.37,2013-03-28 21:21:00,
2013-03-28 17:31:00,68.9,14.1,30.19,WSW,250,10.3,10.3,12,0.00,CLR,,0.00,WeatherDisplay:10.37,2013-03-28 21:31:00,
2013-03-28 17:36:00,68.5,13.9,30.19,North,7,6.3,6.3,12,0.00,CLR,,0.00,WeatherDisplay:10.37,2013-03-28 21:36:00,
2013-03-28 17:46:00,68.7,19.1,30.19,NNE,16,6.3,6.3,15,0.00,CLR,,0.00,WeatherDisplay:10.37,2013-03-28 21:46:00,
2013-03-28 17:51:00,68.9,19.3,30.19,NNW,330,8.1,8.1,15,0.00,CLR,,0.00,WeatherDisplay:10.37,2013-03-28 21:51:00,
2013-03-28 18:00:00,68.2,13.6,30.19,WSW,237,8.1,8.1,12,0.00,CLR,,0.00,WeatherDisplay:10.37,2013-03-28 22:00:00,
2013-03-28 18:01:00,66.6,12.3,30.19,NNE,16,8.1,8.1,12,0.00,CLR,,0.00,WeatherDisplay:10.37,2013-03-28 22:01:00,
2013-03-28 18:05:00,66.9,12.6,30.19,NE,41,5.8,5.8,12,0.00,CLR,,0.00,WeatherDisplay:10.37,2013-03-28 22:05:00,
2013-03-28 18:10:00,66.6,12.3,30.19,North,353,5.4,5.4,12,0.00,CLR,,0.00,WeatherDisplay:10.37,2013-03-28 22:10:00,
2013-03-28 18:16:00,66.6,12.3,30.19,NNW,331,7.6,7.6,12,0.00,CLR,,0.00,WeatherDisplay:10.37,2013-03-28 22:16:00,
2013-03-28 18:21:00,66.7,12.4,30.19,North,0,8.1,8.1,12,0.00,CLR,,0.00,WeatherDisplay:10.37,2013-03-28 22:21:00,
2013-03-28 18:31:00,66.4,17.3,30.22,NNE,15,8.1,8.1,15,0.00,CLR,,0.00,WeatherDisplay:10.37,2013-03-28 22:31:00,
2013-03-28 18:36:00,65.7,16.7,30.22,NNW,342,6.9,6.9,15,0.00,CLR,,0.00,WeatherDisplay:10.37,2013-03-28 22:36:00,
2013-03-28 18:46:00,64.9,16.1,30.22,North,9,5.8,5.8,15,0.00,CLR,,0.00,WeatherDisplay:10.37,2013-03-28 22:46:00,
2013-03-28 18:51:00,64.6,20.1,30.22,West,279,5.8,5.8,18,0.00,CLR,,0.00,WeatherDisplay:10.37,2013-03-28 22:51:00,
2013-03-28 19:00:00,63.9,19.5,30.22,North,353,8.1,8.1,18,0.00,CLR,,0.00,WeatherDisplay:10.37,2013-03-28 23:00:00,
2013-03-28 19:01:00,62.8,18.6,30.22,NNW,333,5.8,5.8,18,0.00,CLR,,0.00,WeatherDisplay:10.37,2013-03-28 23:01:00,
2013-03-28 19:05:00,63.5,19.2,30.22,WNW,282,7.2,7.2,18,0.00,CLR,,0.00,WeatherDisplay:10.37,2013-03-28 23:05:00,
2013-03-28 19:10:00,62.8,18.6,30.22,NW,316,5.8,5.8,18,0.00,CLR,,0.00,WeatherDisplay:10.37,2013-03-28 23:10:00,
2013-03-28 19:16:00,62.2,19.4,30.22,North,357,4.0,4.0,19,0.00,CLR,,0.00,WeatherDisplay:10.37,2013-03-28 23:16:00,
2013-03-28 19:21:00,61.9,21.5,30.22,NW,306,6.3,6.3,21,0.00,CLR,,0.00,WeatherDisplay:10.37,2013-03-28 23:21:00,
2013-03-28 19:31:00,61.2,20.9,30.22,NNW,339,4.6,4.6,21,0.00,CLR,,0.00,WeatherDisplay:10.37,2013-03-28 23:31:00,
2013-03-28 19:36:00,61.0,23.9,30.22,North,353,5.8,0.0,24,0.00,CLR,,0.00,WeatherDisplay:10.37,2013-03-28 23:36:00,
2013-03-28 19:46:00,60.4,23.4,30.22,NNW,331,5.8,5.8,24,0.00,CLR,,0.00,WeatherDisplay:10.37,2013-03-28 23:46:00,
2013-03-28 19:51:00,60.3,24.3,30.22,WNW,300,5.8,5.8,25,0.00,CLR,,0.00,WeatherDisplay:10.37,2013-03-28 23:51:00,
2013-03-28 20:00:00,59.9,23.9,30.22,NNW,337,4.9,4.9,25,0.00,CLR,,0.00,WeatherDisplay:10.37,2013-03-29 00:00:00,
2013-03-28 20:01:00,59.5,23.6,30.22,NNW,340,2.3,0.0,25,0.00,CLR,,0.00,WeatherDisplay:10.37,2013-03-29 00:01:00,
2013-03-28 20:05:00,59.7,23.8,30.22,North,349,3.4,3.4,25,0.00,CLR,,0.00,WeatherDisplay:10.37,2013-03-29 00:05:00,
2013-03-28 20:10:00,59.7,23.8,30.22,NNW,327,3.4,0.0,25,0.00,CLR,,0.00,WeatherDisplay:10.37,2013-03-29 00:10:00,
2013-03-28 20:16:00,59.4,24.4,30.22,NNW,348,3.4,3.6,26,0.00,CLR,,0.00,WeatherDisplay:10.37,2013-03-29 00:16:00,
2013-03-28 20:21:00,59.4,24.4,30.22,North,0,5.8,5.8,26,0.00,CLR,,0.00,WeatherDisplay:10.37,2013-03-29 00:21:00,
2013-03-28 20:31:00,58.8,24.9,30.22,NNW,346,3.4,3.4,27,0.00,CLR,,0.00,WeatherDisplay:10.37,2013-03-29 00:31:00,
2013-03-28 20:36:00,58.8,25.7,30.22,NNW,345,3.4,3.4,28,0.00,CLR,,0.00,WeatherDisplay:10.37,2013-03-29 00:36:00,
2013-03-28 20:46:00,58.5,26.3,30.22,North,357,3.6,3.6,29,0.00,CLR,,0.00,WeatherDisplay:10.37,2013-03-29 00:46:00,
2013-03-28 20:51:00,58.3,26.1,30.22,NNW,344,3.4,3.6,29,0.00,CLR,,0.00,WeatherDisplay:10.37,2013-03-29 00:51:00,
2013-03-28 21:00:00,57.9,26.6,30.22,North,353,4.0,4.0,30,0.00,CLR,,0.00,WeatherDisplay:10.37,2013-03-29 01:00:00,
2013-03-28 21:01:00,57.6,27.1,30.22,NNW,343,3.6,3.6,31,0.00,CLR,,0.00,WeatherDisplay:10.37,2013-03-29 01:01:00,
2013-03-28 21:05:00,57.9,26.6,30.22,NNW,346,4.6,4.6,30,0.00,CLR,,0.00,WeatherDisplay:10.37,2013-03-29 01:05:00,
2013-03-28 21:10:00,57.7,27.3,30.22,North,0,3.4,3.4,31,0.00,CLR,,0.00,WeatherDisplay:10.37,2013-03-29 01:10:00,
2013-03-28 21:16:00,57.4,27.0,30.22,North,3,3.4,3.4,31,0.00,CLR,,0.00,WeatherDisplay:10.37,2013-03-29 01:16:00,
2013-03-28 21:21:00,57.2,29.1,30.22,North,0,3.4,3.4,34,0.00,CLR,,0.00,WeatherDisplay:10.37,2013-03-29 01:21:00,
2013-03-28 21:31:00,57.0,29.6,30.22,NNE,16,3.4,0.0,35,0.00,CLR,,0.00,WeatherDisplay:10.37,2013-03-29 01:31:00,
2013-03-28 21:36:00,56.8,29.4,30.22,North,353,2.7,0.0,35,0.00,CLR,,0.00,WeatherDisplay:10.37,2013-03-29 01:36:00,
2013-03-28 21:46:00,56.5,29.1,30.22,North,2,2.7,0.0,35,0.00,CLR,,0.00,WeatherDisplay:10.37,2013-03-29 01:46:00,
2013-03-28 21:51:00,56.3,29.7,30.22,North,357,3.4,3.4,36,0.00,CLR,,0.00,WeatherDisplay:10.37,2013-03-29 01:51:00,
2013-03-28 22:00:00,56.1,29.5,30.25,North,353,3.4,3.4,36,0.00,CLR,,0.00,WeatherDisplay:10.37,2013-03-29 02:00:00,
2013-03-28 22:01:00,55.9,30.0,30.25,North,353,3.4,3.4,37,0.00,CLR,,0.00,WeatherDisplay:10.37,2013-03-29 02:01:00,
2013-03-28 22:05:00,55.9,30.0,30.25,NNW,348,3.4,3.4,37,0.00,CLR,,0.00,WeatherDisplay:10.37,2013-03-29 02:05:00,
2013-03-28 22:10:00,55.9,30.0,30.25,North,353,3.4,3.4,37,0.00,CLR,,0.00,WeatherDisplay:10.37,2013-03-29 02:10:00,
2013-03-28 22:16:00,55.9,31.3,30.25,North,353,3.6,3.6,39,0.00,CLR,,0.00,WeatherDisplay:10.37,2013-03-29 02:16:00,
2013-03-28 22:21:00,55.8,30.5,30.25,North,357,0.0,0.0,38,0.00,CLR,,0.00,WeatherDisplay:10.37,2013-03-29 02:21:00,
2013-03-28 22:31:00,55.4,30.8,30.25,NNE,17,0.0,0.0,39,0.00,CLR,,0.00,WeatherDisplay:10.37,2013-03-29 02:31:00,
2013-03-28 22:36:00,54.7,30.2,30.25,NNE,17,0.0,0.0,39,0.00,CLR,,0.00,WeatherDisplay:10.37,2013-03-29 02:36:00,
2013-03-28 22:46:00,53.6,29.8,30.25,NE,46,0.0,0.0,40,0.00,CLR,,0.00,WeatherDisplay:10.37,2013-03-29 02:46:00,
2013-03-28 22:51:00,53.2,30.1,30.25,NE,46,0.0,0.0,41,0.00,CLR,,0.00,WeatherDisplay:10.37,2013-03-29 02:51:00,
2013-03-28 23:00:00,52.7,30.2,30.25,NE,46,0.0,0.0,42,0.00,CLR,,0.00,WeatherDisplay:10.37,2013-03-29 03:00:00,
2013-03-28 23:01:00,52.0,30.2,30.25,NE,46,0.0,0.0,43,0.00,CLR,,0.00,WeatherDisplay:10.37,2013-03-29 03:01:00,
2013-03-28 23:05:00,52.3,29.9,30.25,NE,46,0.0,0.0,42,0.00,CLR,,0.00,WeatherDisplay:10.37,2013-03-29 03:05:00,
2013-03-28 23:10:00,52.0,30.2,30.25,NE,46,0.0,0.0,43,0.00,CLR,,0.00,WeatherDisplay:10.37,2013-03-29 03:10:00,
2013-03-28 23:16:00,51.6,30.4,30.25,NE,46,0.0,0.0,44,0.00,CLR,,0.00,WeatherDisplay:10.37,2013-03-29 03:16:00,
2013-03-28 23:21:00,51.4,30.2,30.25,NE,46,0.0,0.0,44,0.00,CLR,,0.00,WeatherDisplay:10.37,2013-03-29 03:21:00,
2013-03-28 23:31:00,50.9,30.8,30.25,NE,46,0.0,0.0,46,0.00,CLR,,0.00,WeatherDisplay:10.37,2013-03-29 03:31:00,
2013-03-28 23:36:00,50.5,30.5,30.25,NE,46,0.0,0.0,46,0.00,CLR,,0.00,WeatherDisplay:10.37,2013-03-29 03:36:00,
2013-03-28 23:46:00,50.4,30.9,30.25,NE,46,0.0,0.0,47,0.00,CLR,,0.00,WeatherDisplay:10.37,2013-03-29 03:46:00,
2013-03-28 23:51:00,50.2,30.7,30.25,NE,46,0.0,0.0,47,0.00,CLR,,0.00,WeatherDisplay:10.37,2013-03-29 03:51:00,